• En España
  • Lista de países
  • Para 7 días
  • Temperatura del agua
  • Mapa Satelital
  • El tiempo en el mapa
  • Informadores
  • user-avatar
    Iniciar sesión

    Tiempo cada hora Zapadnoe Usovo

    Hoy, 22 Julio, Domingo

    Tiempo Temperatura Precipitaciones Viento Presión Humedad
    00:00 +19°C° 0 mm 3 mps 734 mmHg 96%
    01:00 +18°C° 0 mm 3 mps 734 mmHg 96%
    02:00 +18°C° 0 mm 2 mps 734 mmHg 97%
    03:00 +19°C° 0,3 mm 3 mps 734 mmHg 97%
    04:00 +19°C° 0,3 mm 4 mps 734 mmHg 97%
    05:00 +19°C° 0,3 mm 4 mps 734 mmHg 97%
    06:00 +19°C° 0,2 mm 4 mps 734 mmHg 96%
    07:00 +20°C° 0,2 mm 5 mps 734 mmHg 95%
    08:00 +20°C° 0,2 mm 5 mps 735 mmHg 94%
    09:00 +20°C° 0,1 mm 5 mps 735 mmHg 93%
    10:00 +21°C° 0,1 mm 5 mps 735 mmHg 92%
    11:00 +21°C° 0,1 mm 5 mps 735 mmHg 91%
    12:00 +21°C° 0 mm 5 mps 735 mmHg 90%
    13:00 +21°C° 0 mm 5 mps 734 mmHg 89%
    14:00 +22°C° 0 mm 5 mps 734 mmHg 88%
    15:00 +22°C° 0,2 mm 5 mps 734 mmHg 87%
    16:00 +22°C° 0,2 mm 5 mps 734 mmHg 86%
    17:00 +22°C° 0,2 mm 5 mps 734 mmHg 86%
    18:00 +22°C° 0,4 mm 5 mps 734 mmHg 88%
    19:00 +21°C° 0,4 mm 5 mps 734 mmHg 90%
    20:00 +20°C° 0,4 mm 5 mps 734 mmHg 93%
    21:00 +20°C° 0,4 mm 5 mps 734 mmHg 94%
    22:00 +19°C° 0,4 mm 5 mps 734 mmHg 95%
    23:00 +19°C° 0,4 mm 5 mps 734 mmHg 96%

    Mañana, 23 Julio, Lunes

    Tiempo Temperatura Precipitaciones Viento Presión Humedad
    00:00 +19°C° 0 mm 5 mps 734 mmHg 96%
    01:00 +19°C° 0 mm 5 mps 734 mmHg 95%
    02:00 +19°C° 0 mm 5 mps 734 mmHg 95%
    03:00 +19°C° 0 mm 5 mps 734 mmHg 95%
    04:00 +19°C° 0 mm 5 mps 734 mmHg 95%
    05:00 +17°C° 0 mm 5 mps 734 mmHg 95%
    06:00 +19°C° 0,1 mm 5 mps 734 mmHg 94%
    07:00 +19°C° 0,1 mm 5 mps 734 mmHg 94%
    08:00 +19°C° 0,1 mm 5 mps 735 mmHg 93%
    09:00 +19°C° 0,2 mm 5 mps 735 mmHg 92%
    10:00 +19°C° 0,2 mm 5 mps 735 mmHg 91%
    11:00 +19°C° 0,2 mm 5 mps 735 mmHg 91%
    12:00 +19°C° 0,1 mm 5 mps 735 mmHg 90%
    13:00 +20°C° 0,1 mm 5 mps 735 mmHg 89%
    14:00 +20°C° 0,1 mm 6 mps 735 mmHg 88%
    15:00 +21°C° 0,1 mm 5 mps 735 mmHg 88%
    16:00 +21°C° 0,1 mm 5 mps 735 mmHg 89%
    17:00 +21°C° 0,1 mm 4 mps 735 mmHg 89%
    18:00 +21°C° 0,6 mm 4 mps 735 mmHg 91%
    19:00 +20°C° 0,6 mm 4 mps 735 mmHg 93%
    20:00 +20°C° 0,6 mm 4 mps 735 mmHg 95%
    21:00 +20°C° 1 mm 4 mps 735 mmHg 96%
    22:00 +20°C° 1 mm 4 mps 735 mmHg 96%
    23:00 +20°C° 1 mm 4 mps 735 mmHg 97%

    Pasado mañana, 24 Julio, Martes

    Tiempo Temperatura Precipitaciones Viento Presión Humedad
    00:00 +20°C° 0 mm 4 mps 735 mmHg 97%
    01:00 +19°C° 0 mm 3 mps 735 mmHg 97%
    02:00 +19°C° 0 mm 3 mps 735 mmHg 97%
    03:00 +19°C° 0 mm 3 mps 736 mmHg 97%
    04:00 +19°C° 0 mm 3 mps 736 mmHg 96%
    05:00 +19°C° 0 mm 3 mps 736 mmHg 96%
    06:00 +21°C° 0,1 mm 3 mps 736 mmHg 92%
    07:00 +22°C° 0,1 mm 3 mps 737 mmHg 89%
    08:00 +24°C° 0,1 mm 3 mps 737 mmHg 85%
    09:00 +25°C° 0,7 mm 4 mps 737 mmHg 81%
    10:00 +26°C° 0,7 mm 4 mps 737 mmHg 76%
    11:00 +27°C° 0,7 mm 4 mps 738 mmHg 72%
    12:00 +27°C° 0,5 mm 4 mps 738 mmHg 74%
    13:00 +26°C° 0,5 mm 4 mps 738 mmHg 76%
    14:00 +26°C° 0,5 mm 4 mps 738 mmHg 78%
    15:00 +25°C° 1,1 mm 4 mps 738 mmHg 82%
    16:00 +23°C° 1,1 mm 4 mps 738 mmHg 85%
    17:00 +22°C° 1,1 mm 4 mps 739 mmHg 89%
    18:00 +21°C° 0,6 mm 4 mps 739 mmHg 91%
    19:00 +21°C° 0,6 mm 4 mps 739 mmHg 93%
    20:00 +20°C° 0,6 mm 4 mps 739 mmHg 95%
    21:00 +20°C° 0,1 mm 4 mps 739 mmHg 95%
    22:00 +20°C° 0,1 mm 4 mps 740 mmHg 94%
    23:00 +19°C° 0,1 mm 3 mps 740 mmHg 94%

    25 Julio, Miércoles

    Tiempo Temperatura Precipitaciones Viento Presión Humedad
    00:00 +19°C° 0,1 mm 3 mps 740 mmHg 93%
    01:00 +19°C° 0,1 mm 4 mps 740 mmHg 92%
    02:00 +18°C° 0,1 mm 4 mps 739 mmHg 91%
    03:00 +18°C° 0,3 mm 4 mps 739 mmHg 90%
    04:00 +17°C° 0,3 mm 5 mps 739 mmHg 89%
    05:00 +17°C° 0,3 mm 6 mps 739 mmHg 88%
    06:00 +17°C° 0,2 mm 6 mps 740 mmHg 85%
    07:00 +19°C° 0,2 mm 6 mps 740 mmHg 83%
    08:00 +19°C° 0,2 mm 6 mps 740 mmHg 81%
    09:00 +20°C° 0,1 mm 6 mps 740 mmHg 78%
    10:00 +21°C° 0,1 mm 7 mps 740 mmHg 75%
    11:00 +22°C° 0,1 mm 7 mps 740 mmHg 72%
    12:00 +23°C° 0,1 mm 7 mps 740 mmHg 71%
    13:00 +24°C° 0,1 mm 7 mps 741 mmHg 71%
    14:00 +26°C° 0,1 mm 7 mps 741 mmHg 70%
    15:00 +26°C° 0,1 mm 6 mps 741 mmHg 71%
    16:00 +24°C° 0,1 mm 6 mps 741 mmHg 73%
    17:00 +25°C° 0,1 mm 5 mps 741 mmHg 74%
    18:00 +23°C° 0 mm 5 mps 741 mmHg 76%
    19:00 +22°C° 0 mm 5 mps 741 mmHg 78%
    20:00 +20°C° 0 mm 4 mps 741 mmHg 80%
    21:00 +20°C° 0 mm 4 mps 742 mmHg 80%
    22:00 +20°C° 0 mm 4 mps 742 mmHg 80%
    23:00 +20°C° 0 mm 4 mps 742 mmHg 80%

    26 Julio, Jueves

    Tiempo Temperatura Precipitaciones Viento Presión Humedad
    00:00 +19°C° 0 mm 4 mps 742 mmHg 80%
    01:00 +19°C° 0 mm 4 mps 742 mmHg 80%
    02:00 +19°C° 0 mm 4 mps 742 mmHg 80%
    03:00 +18°C° 0 mm 4 mps 742 mmHg 81%
    04:00 +18°C° 0 mm 4 mps 742 mmHg 83%
    05:00 +18°C° 0 mm 4 mps 742 mmHg 84%
    06:00 +19°C° 0 mm 5 mps 742 mmHg 81%
    07:00 +21°C° 0 mm 5 mps 743 mmHg 78%
    08:00 +22°C° 0 mm 6 mps 743 mmHg 75%
    09:00 +23°C° 0 mm 6 mps 743 mmHg 74%
    10:00 +25°C° 0 mm 5 mps 743 mmHg 73%
    11:00 +25°C° 0 mm 5 mps 743 mmHg 72%
    12:00 +26°C° 0 mm 5 mps 743 mmHg 72%
    13:00 +26°C° 0 mm 5 mps 743 mmHg 72%
    14:00 +27°C° 0 mm 5 mps 743 mmHg 72%
    15:00 +26°C° 0 mm 5 mps 743 mmHg 74%
    16:00 +26°C° 0 mm 4 mps 743 mmHg 75%
    17:00 +26°C° 0 mm 4 mps 743 mmHg 77%
    18:00 +25°C° 0,2 mm 4 mps 744 mmHg 78%
    19:00 +23°C° 0,2 mm 4 mps 744 mmHg 79%
    20:00 +22°C° 0,2 mm 4 mps 744 mmHg 81%
    21:00 +22°C° 0,4 mm 4 mps 744 mmHg 83%
    22:00 +21°C° 0,4 mm 4 mps 744 mmHg 86%
    23:00 +21°C° 0,4 mm 3 mps 744 mmHg 88%

    27 Julio, Viernes

    Tiempo Temperatura Precipitaciones Viento Presión Humedad
    00:00 +21°C° 0,1 mm 3 mps 744 mmHg 89%
    01:00 +21°C° 0,1 mm 3 mps 744 mmHg 90%
    02:00 +20°C° 0,1 mm 3 mps 745 mmHg 91%
    03:00 +20°C° 0,1 mm 3 mps 745 mmHg 91%
    04:00 +20°C° 0,1 mm 3 mps 745 mmHg 91%
    05:00 +20°C° 0,1 mm 3 mps 745 mmHg 90%
    06:00 +21°C° 0 mm 4 mps 745 mmHg 86%
    07:00 +22°C° 0 mm 4 mps 745 mmHg 81%
    08:00 +25°C° 0 mm 5 mps 746 mmHg 77%
    09:00 +26°C° 0 mm 5 mps 746 mmHg 72%
    10:00 +27°C° 0 mm 5 mps 746 mmHg 67%
    11:00 +28°C° 0 mm 6 mps 746 mmHg 62%
    12:00 +28°C° 0 mm 6 mps 746 mmHg 62%
    13:00 +28°C° 0 mm 5 mps 746 mmHg 61%
    14:00 +29°C° 0 mm 5 mps 745 mmHg 60%
    15:00 +28°C° 0 mm 5 mps 745 mmHg 64%
    16:00 +28°C° 0 mm 4 mps 745 mmHg 68%
    17:00 +27°C° 0 mm 3 mps 745 mmHg 73%
    18:00 +26°C° 0 mm 3 mps 745 mmHg 75%
    19:00 +24°C° 0 mm 3 mps 745 mmHg 78%
    20:00 +22°C° 0 mm 3 mps 745 mmHg 81%
    21:00 +21°C° 0 mm 3 mps 745 mmHg 82%
    22:00 +21°C° 0 mm 3 mps 746 mmHg 83%
    23:00 +20°C° 0 mm 3 mps 746 mmHg 84%
    Mostrar más